CW8540 Weather Reports


time (UTC)temp
F
wind
direction
speed
knots
gust
knots
rain 1hr
in
rain 24hr
in
rain mn
in
humidity
%
barometer
mb
20260906231549 60 74 0.0 6.1 0.00 0.00 0.00 82 1016.7
20260906230052 60 115 1.7 6.1 0.00 0.00 0.00 84 1016.8
20260906224604 59 108 2.6 7.0 0.00 0.00 0.00 85 1016.8
20260906223052 59 97 3.5 9.6 0.00 0.00 0.00 85 1016.9
20260906221550 59 100 5.2 8.7 0.00 0.00 0.00 86 1017.1
20260906220059 58 105 4.3 7.8 0.00 0.00 0.00 88 1017.3
20260906214555 58 98 4.3 7.8 0.00 0.00 0.00 88 1017.2
20260906213051 58 105 4.3 7.8 0.00 0.00 0.00 88 1017.4
20260906211601 57 123 4.3 8.7 0.00 0.00 0.00 89 1017.6
20260906204550 57 94 3.5 8.7 0.00 0.00 0.00 93 1017.7
20260906203050 57 108 6.1 9.6 0.00 0.00 0.00 93 1017.8
20260906201556 56 98 6.1 8.7 0.00 0.00 0.00 93 1017.9
20260906200056 56 132 2.6 7.0 0.00 0.00 0.00 94 1018.0
20260906194551 56 113 2.6 6.1 0.00 0.00 0.00 93 1018.2
20260906193058 56 121 3.5 7.8 0.00 0.00 0.00 92 1018.1
20260906191557 56 118 4.3 7.0 0.00 0.00 0.00 92 1018.1
20260906190053 55 144 4.3 7.8 0.00 0.00 0.00 92 1018.2
20260906184609 55 113 4.3 9.6 0.00 0.00 0.00 93 1018.4
20260906183047 55 123 4.3 8.7 0.00 0.00 0.00 93 1018.5
20260906181602 55 100 6.1 8.7 0.00 0.00 0.00 94 1018.6
20260906180054 55 112 4.3 7.8 0.00 0.00 0.00 94 1018.7
20260906174552 55 98 4.3 12.2 0.00 0.00 0.00 94 1018.9
20260906173106 55 90 4.3 11.3 0.00 0.00 0.00 94 1018.9
20260906171558 55 94 6.1 9.6 0.00 0.00 0.00 94 1018.9
20260906170051 55 105 5.2 8.7 0.00 0.00 0.00 95 1018.9
20260906164615 55 105 3.5 7.0 0.00 0.00 0.00 96 1019.1
20260906163059 55 107 2.6 7.0 0.00 0.00 0.00 96 1019.1
20260906161601 54 91 5.2 7.8 0.00 0.00 0.00 96 1018.9
20260906160051 54 89 4.3 7.8 0.00 0.00 0.00 95 1019.1
20260906154601 54 81 3.5 7.0 0.00 0.00 0.00 95 1018.8
20260906153059 54 80 4.3 7.8 0.00 0.00 0.00 95 1018.7
20260906151600 54 61 1.7 4.3 0.00 0.00 0.00 96 1018.7
20260906150052 54 72 2.6 6.1 0.00 0.00 0.00 96 1018.9
20260906144606 53 71 1.7 3.5 0.00 0.00 0.00 96 1019.1
20260906143110 53 75 0.9 3.5 0.00 0.00 0.00 96 1019.4
20260906141554 52 67 0.9 2.6 0.00 0.00 0.00 96 1019.4
20260906140048 52 97 0.9 2.6 0.00 0.00 0.00 96 1019.5
20260906134554 52 112 0.9 1.7 0.00 0.00 0.00 96 1019.5
20260906133101 52 112 0.0 0.9 0.00 0.00 0.00 96 1019.3
20260906131556 52 112 0.0 0.9 0.00 0.00 0.00 96 1019.6
20260906130059 52 0 0.0 0.9 0.00 0.00 0.00 96 1019.6
20260906124559 52 0 0.0 0.9 0.00 0.00 0.00 96 1020.0
20260906123049 52 0 0.0 0.9 0.00 0.00 0.00 96 1020.1
20260906121547 52 0 0.0 0.9 0.00 0.00 0.00 96 1020.1
20260906120103 52 112 0.9 2.6 0.00 0.00 0.00 96 1020.2
20260906114552 52 121 0.9 1.7 0.00 0.00 0.00 96 1020.1
20260906113051 52 121 0.9 2.6 0.00 0.00 0.00 96 1020.0
20260906111554 52 95 1.7 3.5 0.00 0.00 0.00 96 1019.9
20260906110052 52 96 0.9 2.6 0.00 0.00 0.00 96 1019.9
20260906104552 52 148 0.9 2.6 0.00 0.00 0.00 96 1020.3
20260906103053 52 154 0.9 2.6 0.00 0.00 0.00 95 1020.4
20260906101559 52 145 0.0 2.6 0.00 0.00 0.00 95 1020.5
20260906100052 52 134 0.9 2.6 0.00 0.00 0.00 95 1020.6
20260906094553 52 0 0.9 1.7 0.00 0.00 0.00 95 1020.7
20260906093101 52 209 0.9 2.6 0.00 0.00 0.00 94 1020.9
20260906091557 52 188 0.9 2.6 0.00 0.00 0.00 94 1021.0
20260906090104 52 119 1.7 3.5 0.00 0.00 0.00 95 1021.0
20260906084559 52 86 1.7 3.5 0.00 0.00 0.00 94 1021.0
20260906083049 52 78 1.7 4.3 0.00 0.00 0.00 94 1021.1
20260906081600 52 63 1.7 2.6 0.00 0.00 0.00 94 1021.3
20260906080055 52 103 0.0 1.7 0.00 0.00 0.00 94 1021.4
20260906074552 52 0 0.0 0.9 0.00 0.00 0.00 94 1021.7
20260906073052 52 0 0.0 0.9 0.00 0.00 0.00 94 1021.6
20260906071609 52 0 0.0 0.0 0.00 0.00 0.00 94 1021.7
20260906070050 52 0 0.0 0.9 0.00 0.00 0.00 94 1021.8
20260906064547 52 0 0.0 1.7 0.00 0.00 0.00 94 1021.5
20260906063052 52 98 0.0 2.6 0.00 0.00 0.00 93 1021.8
20260906061558 52 82 1.7 2.6 0.00 0.00 0.00 93 1021.7
20260906060059 52 0 0.0 3.5 0.00 0.00 0.00 93 1021.6
20260906054558 52 69 2.6 4.3 0.00 0.00 0.00 92 1021.4
20260906053053 52 69 2.6 3.5 0.00 0.00 0.00 92 1021.5
20260906051553 52 67 1.7 2.6 0.00 0.00 0.00 92 1021.4
20260906050121 52 77 0.9 2.6 0.00 0.00 0.00 91 1021.6
20260906044555 52 62 0.0 1.7 0.00 0.00 0.00 91 1021.6
20260906043105 53 0 0.0 1.7 0.00 0.00 0.00 91 1021.5
20260906041546 53 0 0.0 0.0 0.00 0.00 0.00 91 1021.5
20260906040059 53 0 0.0 1.7 0.00 0.00 0.00 90 1021.5
20260906034554 53 0 0.0 0.0 0.00 0.00 0.00 90 1021.7
20260906033049 53 0 0.0 0.9 0.00 0.00 0.00 90 1021.6
20260906031549 53 0 0.0 1.7 0.00 0.00 0.00 90 1021.5
20260906030105 53 37 0.0 2.6 0.00 0.00 0.00 90 1021.6
20260906024603 53 0 0.0 0.9 0.00 0.00 0.00 90 1021.5
20260906023053 53 0 0.0 0.0 0.00 0.00 0.00 90 1021.3
20260906021609 53 0 0.0 0.0 0.00 0.00 0.00 89 1021.3
20260906020051 53 0 0.0 1.7 0.00 0.00 0.00 89 1021.4
20260906014602 53 0 0.0 2.6 0.00 0.00 0.00 89 1021.2
20260906013054 53 50 0.0 3.5 0.00 0.00 0.00 89 1021.1
20260906011604 53 0 0.0 0.9 0.00 0.00 0.00 89 1021.2
20260906010100 53 0 0.0 0.0 0.00 0.00 0.00 88 1021.2
20260906004555 53 331 0.0 1.7 0.00 0.00 0.00 88 1021.1
20260906003102 53 352 0.0 1.7 0.00 0.00 0.00 88 1021.1
20260906001558 54 0 0.0 2.6 0.00 0.00 0.00 87 1021.1
20260906000100 54 0 0.0 2.6 0.00 0.00 0.00 87 1021.0
20260905234611 54 0 0.0 1.7 0.00 0.00 0.00 87 1021.1
20260905233049 54 0 0.0 1.7 0.00 0.00 0.00 87 1021.0